Powrót do katalogu

ICEYE-X36

AktywnyNaukaSSO
NORAD 59103·PAYLOAD·🇺🇸 United States

Wystrzelony Mar 4, 2024 z Vandenberg Space Force Base

Loading…

Następne Przeloty (najbliższe 24 godziny)

TLE

ŚwieżeSource: Space-Track

Epoka: Sep 14, 2026, 14:29 UTC

1 59103U 24043F   26257.60403791  .00003604  00000-0  24097-3 0  9991
2 59103  97.8496  37.3752 0006332  29.2623 330.8958 15.07614001138618

Śledź ICEYE-X36 w czasie rzeczywistym z AllMySat

Download on the App Store